When you browse on this site, cookies collect data to enhance your experience and personalize the content and advertising you see.
Visit our Privacy Policy to learn more. By continuing to use the site, you agree to this use of cookies and data.

Hourly Weather Mostar

Today, 13 August, Thursday

Time Temperature Precipitation Wind Pressure Humidity
00:00 +24°C° 0 mm 1 mps 755 mmHg 79%
01:00 +23°C° 0 mm 2 mps 755 mmHg 79%
02:00 +23°C° 0 mm 2 mps 755 mmHg 79%
03:00 +23°C° 0 mm 2 mps 755 mmHg 79%
04:00 +23°C° 0 mm 2 mps 755 mmHg 79%
05:00 +24°C° 0 mm 2 mps 755 mmHg 75%
06:00 +25°C° 0 mm 1 mps 755 mmHg 72%
07:00 +26°C° 0 mm 1 mps 755 mmHg 68%
08:00 +28°C° 0 mm 1 mps 755 mmHg 61%
09:00 +30°C° 0 mm 1 mps 755 mmHg 53%
10:00 +31°C° 0 mm 0 mps 755 mmHg 46%
11:00 +33°C° 0 mm 1 mps 755 mmHg 44%
12:00 +34°C° 0 mm 1 mps 755 mmHg 42%
13:00 +35°C° 0 mm 2 mps 755 mmHg 40%
14:00 +35°C° 0 mm 2 mps 754 mmHg 43%
15:00 +34°C° 0 mm 2 mps 754 mmHg 45%
16:00 +34°C° 0 mm 2 mps 754 mmHg 47%
17:00 +31°C° 0 mm 2 mps 754 mmHg 55%
18:00 +29°C° 0 mm 1 mps 754 mmHg 63%
19:00 +25°C° 0 mm 0 mps 754 mmHg 72%
20:00 +25°C° 0 mm 0 mps 754 mmHg 72%
21:00 +26°C° 0 mm 1 mps 754 mmHg 72%
22:00 +26°C° 0 mm 1 mps 754 mmHg 72%
23:00 +26°C° 0 mm 1 mps 754 mmHg 72%

Tomorrow, 14 August, Friday

Time Temperature Precipitation Wind Pressure Humidity
00:00 +25°C° 0 mm 1 mps 754 mmHg 72%
01:00 +25°C° 0 mm 1 mps 754 mmHg 73%
02:00 +25°C° 0 mm 1 mps 754 mmHg 73%
03:00 +24°C° 0 mm 1 mps 753 mmHg 73%
04:00 +24°C° 0 mm 1 mps 753 mmHg 73%
05:00 +26°C° 0 mm 1 mps 753 mmHg 69%
06:00 +27°C° 0 mm 1 mps 753 mmHg 65%
07:00 +28°C° 0 mm 1 mps 753 mmHg 62%
08:00 +30°C° 0 mm 1 mps 753 mmHg 55%
09:00 +32°C° 0 mm 1 mps 753 mmHg 49%
10:00 +34°C° 0 mm 1 mps 753 mmHg 43%
11:00 +35°C° 0 mm 2 mps 752 mmHg 42%
12:00 +36°C° 0 mm 2 mps 752 mmHg 40%
13:00 +36°C° 0 mm 3 mps 752 mmHg 39%
14:00 +36°C° 0 mm 2 mps 751 mmHg 40%
15:00 +35°C° 0 mm 2 mps 751 mmHg 41%
16:00 +35°C° 0 mm 2 mps 751 mmHg 43%
17:00 +32°C° 0 mm 2 mps 751 mmHg 48%
18:00 +30°C° 0 mm 1 mps 751 mmHg 54%
19:00 +26°C° 0 mm 0 mps 751 mmHg 59%
20:00 +27°C° 0 mm 1 mps 751 mmHg 60%
21:00 +27°C° 0 mm 1 mps 751 mmHg 61%
22:00 +26°C° 0 mm 1 mps 752 mmHg 62%
23:00 +26°C° 0 mm 1 mps 752 mmHg 62%

Day after tomorrow, 15 August, Saturday

Time Temperature Precipitation Wind Pressure Humidity
00:00 +25°C° 0 mm 1 mps 751 mmHg 62%
01:00 +25°C° 0 mm 1 mps 751 mmHg 62%
02:00 +25°C° 0 mm 1 mps 751 mmHg 62%
03:00 +25°C° 0 mm 1 mps 751 mmHg 62%
04:00 +24°C° 0 mm 1 mps 751 mmHg 62%
05:00 +26°C° 0 mm 1 mps 751 mmHg 60%
06:00 +27°C° 0 mm 1 mps 751 mmHg 57%
07:00 +28°C° 0 mm 1 mps 751 mmHg 55%
08:00 +30°C° 0 mm 1 mps 751 mmHg 50%
09:00 +31°C° 0 mm 1 mps 751 mmHg 45%
10:00 +33°C° 0 mm 1 mps 752 mmHg 41%
11:00 +34°C° 0 mm 1 mps 751 mmHg 39%
12:00 +35°C° 0 mm 2 mps 751 mmHg 38%
13:00 +35°C° 0 mm 2 mps 751 mmHg 36%
14:00 +35°C° 0.1 mm 2 mps 751 mmHg 39%
15:00 +34°C° 0.1 mm 2 mps 751 mmHg 42%
16:00 +32°C° 0.1 mm 2 mps 751 mmHg 44%
17:00 +30°C° 0.1 mm 2 mps 751 mmHg 52%
18:00 +28°C° 0.1 mm 1 mps 751 mmHg 59%
19:00 +26°C° 0.1 mm 1 mps 751 mmHg 67%
20:00 +26°C° 0 mm 1 mps 751 mmHg 68%
21:00 +25°C° 0 mm 1 mps 751 mmHg 69%
22:00 +25°C° 0 mm 1 mps 751 mmHg 70%
23:00 +24°C° 0 mm 1 mps 751 mmHg 70%

16 August, Sunday

Time Temperature Precipitation Wind Pressure Humidity
00:00 +24°C° 0 mm 1 mps 751 mmHg 71%
01:00 +24°C° 0 mm 1 mps 751 mmHg 72%
02:00 +23°C° 0 mm 1 mps 751 mmHg 72%
03:00 +23°C° 0 mm 1 mps 751 mmHg 73%
04:00 +23°C° 0 mm 2 mps 751 mmHg 74%
05:00 +24°C° 0 mm 2 mps 751 mmHg 71%
06:00 +25°C° 0 mm 2 mps 751 mmHg 68%
07:00 +26°C° 0 mm 2 mps 751 mmHg 65%
08:00 +28°C° 0 mm 1 mps 752 mmHg 59%
09:00 +30°C° 0 mm 1 mps 752 mmHg 53%
10:00 +32°C° 0 mm 1 mps 752 mmHg 47%
11:00 +32°C° 0.1 mm 1 mps 752 mmHg 46%
12:00 +34°C° 0.1 mm 2 mps 752 mmHg 45%
13:00 +34°C° 0.1 mm 2 mps 752 mmHg 45%
14:00 +34°C° 0.2 mm 2 mps 752 mmHg 47%
15:00 +32°C° 0.2 mm 2 mps 751 mmHg 50%
16:00 +31°C° 0.2 mm 1 mps 751 mmHg 52%
17:00 +30°C° 0 mm 1 mps 751 mmHg 58%
18:00 +28°C° 0 mm 1 mps 751 mmHg 65%
19:00 +26°C° 0 mm 1 mps 752 mmHg 71%
20:00 +26°C° 0 mm 1 mps 752 mmHg 73%
21:00 +25°C° 0 mm 1 mps 752 mmHg 75%
22:00 +24°C° 0 mm 2 mps 752 mmHg 77%
23:00 +24°C° 0 mm 2 mps 752 mmHg 77%

17 August, Monday

Time Temperature Precipitation Wind Pressure Humidity
00:00 +24°C° 0 mm 2 mps 752 mmHg 78%
01:00 +23°C° 0 mm 2 mps 752 mmHg 79%
02:00 +23°C° 0 mm 2 mps 752 mmHg 78%
03:00 +23°C° 0 mm 2 mps 752 mmHg 78%
04:00 +23°C° 0 mm 2 mps 752 mmHg 78%
05:00 +24°C° 0 mm 1 mps 752 mmHg 74%
06:00 +25°C° 0 mm 1 mps 752 mmHg 70%
07:00 +26°C° 0 mm 1 mps 752 mmHg 65%
08:00 +28°C° 0 mm 1 mps 752 mmHg 59%
09:00 +30°C° 0 mm 1 mps 752 mmHg 53%
10:00 +32°C° 0 mm 1 mps 752 mmHg 47%
11:00 +34°C° 0 mm 2 mps 752 mmHg 46%
12:00 +34°C° 0 mm 2 mps 752 mmHg 45%
13:00 +34°C° 0 mm 2 mps 752 mmHg 45%
14:00 +34°C° 0 mm 2 mps 751 mmHg 47%
15:00 +32°C° 0 mm 2 mps 751 mmHg 49%
16:00 +32°C° 0 mm 2 mps 751 mmHg 51%
17:00 +30°C° 0.1 mm 2 mps 751 mmHg 58%
18:00 +28°C° 0.1 mm 1 mps 751 mmHg 65%
19:00 +26°C° 0.1 mm 1 mps 751 mmHg 72%
20:00 +25°C° 0 mm 1 mps 751 mmHg 74%
21:00 +23°C° 0 mm 0 mps 751 mmHg 75%
22:00 +22°C° 0 mm 0 mps 751 mmHg 77%
23:00 +24°C° 0 mm 1 mps 751 mmHg 78%

18 August, Tuesday

Time Temperature Precipitation Wind Pressure Humidity
00:00 +24°C° 0 mm 1 mps 751 mmHg 78%
01:00 +23°C° 0 mm 1 mps 751 mmHg 79%
02:00 +23°C° 0 mm 1 mps 751 mmHg 80%
03:00 +23°C° 0 mm 1 mps 751 mmHg 80%
04:00 +23°C° 0 mm 2 mps 751 mmHg 80%
05:00 +24°C° 0 mm 1 mps 751 mmHg 75%
06:00 +26°C° 0 mm 1 mps 751 mmHg 69%
07:00 +27°C° 0 mm 1 mps 751 mmHg 64%
08:00 +29°C° 0 mm 1 mps 751 mmHg 57%
09:00 +31°C° 0 mm 2 mps 751 mmHg 50%
10:00 +34°C° 0 mm 2 mps 751 mmHg 44%
11:00 +34°C° 0 mm 2 mps 751 mmHg 43%
12:00 +34°C° 0 mm 2 mps 750 mmHg 42%
13:00 +35°C° 0 mm 3 mps 750 mmHg 41%
14:00 +35°C° 0 mm 3 mps 750 mmHg 43%
15:00 +34°C° 0 mm 2 mps 749 mmHg 44%
16:00 +34°C° 0 mm 2 mps 749 mmHg 45%
17:00 +31°C° 0 mm 2 mps 749 mmHg 52%
18:00 +28°C° 0 mm 1 mps 749 mmHg 60%
19:00 +24°C° 0 mm 0 mps 749 mmHg 67%
20:00 +24°C° 0 mm 0 mps 750 mmHg 69%
21:00 +25°C° 0 mm 1 mps 750 mmHg 70%
22:00 +25°C° 0 mm 1 mps 751 mmHg 71%
23:00 +24°C° 0 mm 1 mps 751 mmHg 72%
Show more